Location: Isle of Man Observatory
(54.1776°N, 4.6264°W)
Time: 12:24:51
(UTC+01:00)

Amateur Radio Satellites - All Passes

Search period start: 24 November 2017 11:54
Search period end: 25 November 2017 11:54
Location: Isle of Man Observatory, 54.1776°N, 4.6264°W

Satellite Date Start Highest point End Downlink Frequencies (MHz)
Time Altitude Azimuth
TIGRISAT 24 Nov 11:57:44 11:59:20 12° 275° (W) 12:00:56 435.000
DELFI C3 24 Nov 12:04:45 12:08:20 32° 295° (WNW) 12:11:54 145.870
AIST 2D 24 Nov 12:09:21 12:12:32 34° 263° (W) 12:15:46 435.315
EO-88 24 Nov 12:19:30 12:22:53 36° 293° (WNW) 12:26:15 145.990 - 145.960
DUCHIFAT 1 24 Nov 12:21:26 12:25:39 87° 74° (ENE) 12:29:52 145.980
Max Valier Satellite 24 Nov 12:29:18 12:32:14 23° 298° (WNW) 12:35:10 145.860
AO-7 24 Nov 12:30:36 12:36:10 20° 29° (NNE) 12:41:46 .
LO-87 24 Nov 12:32:56 12:36:26 53° 101° (E) 12:39:53 145.935 - 145.965
EO-79 24 Nov 12:33:06 12:37:17 59° 259° (WSW) 12:41:29 145.935-145.965
NANOSAT C BR1 24 Nov 12:34:02 12:38:13 64° 257° (WSW) 12:42:25 145.865
Oscar 19 24 Nov 12:34:21 12:38:45 30° 58° (ENE) 12:43:09 437.125/150
AO-85 24 Nov 12:35:31 12:40:04 82° 227° (SW) 12:44:59 145.980
AO-91 24 Nov 12:38:06 12:42:43 30° 60° (ENE) 12:47:14 145.960
POLYITAN 1 24 Nov 12:49:37 12:53:39 42° 262° (W) 12:57:41 437.675
BUGSAT 1 24 Nov 13:00:44 13:04:52 64° 71° (ENE) 13:08:58 437.445
BEESAT 2 24 Nov 13:05:02 13:08:15 23° 241° (WSW) 13:11:26 435.950
QB50P2 24 Nov 13:14:00 13:17:29 24° 267° (W) 13:20:59 145.880/145.840
ESTCUBE 1 24 Nov 13:18:39 13:23:13 83° 287° (WNW) 13:27:46 437.505/2401.250
O/OREOS (USA 219) 24 Nov 13:19:51 13:23:08 20° 102° (ESE) 13:26:26 437.305
VELOX 1 24 Nov 13:24:31 13:28:15 25° 93° (E) 13:31:56 145.980
Gurwin Techsat 1B 24 Nov 13:25:28 13:30:36 52° 66° (ENE) 13:35:47 435.225
M-CUBED/EXP-1 PRIME 24 Nov 13:49:09 13:52:35 33° 56° (NE) 13:56:19 437.505
SPROUT 24 Nov 13:55:29 13:59:45 69° 102° (ESE) 14:03:58 437.525
DUCHIFAT 1 24 Nov 13:59:47 14:01:56 14° 273° (W) 14:04:04 145.980
DX 1 24 Nov 13:59:57 14:02:33 15° 88° (E) 14:05:09 434.975-435.025
LO-87 24 Nov 14:07:03 14:09:31 18° 300° (WNW) 14:11:58 145.935 - 145.965
YUBILEINY 24 Nov 14:10:59 14:15:30 15° 32° (NNE) 14:20:00 435.215
Oscar 19 24 Nov 14:12:48 14:17:49 57° 258° (WSW) 14:22:54 437.125/150
AO-91 24 Nov 14:13:30 14:18:51 61° 259° (W) 14:24:06 145.960
AO-85 24 Nov 14:16:50 14:19:57 18° 245° (WSW) 14:23:14 145.980
AO-7 24 Nov 14:19:19 14:27:08 49° 54° (NE) 14:35:01 .
UKube-1 24 Nov 14:34:18 14:37:33 20° 91° (E) 14:40:47 .
ITAMSAT 1 24 Nov 14:34:21 14:38:40 27° 56° (NE) 14:42:59 435.822/435.867
BUGSAT 1 24 Nov 14:37:42 14:40:37 18° 270° (W) 14:43:31 437.445
NO-84 24 Nov 14:50:00 14:50:55 11° 128° (SE) 14:51:49 435.350 FM
50 SAT 24 Nov 14:53:22 14:56:30 45° 101° (E) 14:59:35 437.505
ESTCUBE 1 24 Nov 14:56:36 14:59:23 16° 307° (NW) 15:02:09 437.505/2401.250
O/OREOS (USA 219) 24 Nov 14:57:27 15:02:04 73° 303° (WNW) 15:06:41 437.305
VELOX 1 24 Nov 15:00:37 15:04:57 50° 293° (WNW) 15:09:15 145.980
MOZHAYETS 4 24 Nov 15:05:22 15:06:08 10° 82° (E) 15:06:55
Gurwin Techsat 1B 24 Nov 15:06:05 15:10:49 32° 266° (W) 15:15:34 435.225
M-CUBED/EXP-1 PRIME 24 Nov 15:23:29 15:26:58 35° 258° (WSW) 15:30:44 437.505
ITUPSAT 1 24 Nov 15:24:45 15:26:36 12° 84° (E) 15:28:28 437.325
DOVE 4 24 Nov 15:27:34 15:30:53 17° 51° (NE) 15:34:15 437.250
SPROUT 24 Nov 15:32:09 15:35:14 20° 303° (WNW) 15:38:17 437.525
DX 1 24 Nov 15:34:55 15:39:20 83° 287° (WNW) 15:43:43 434.975-435.025
AO-91 24 Nov 15:54:06 15:56:17 12° 279° (W) 15:58:25 145.960
Oscar 19 24 Nov 15:58:08 15:58:19 10° 279° (W) 15:58:30 437.125/150
YUBILEINY 24 Nov 16:07:17 16:15:33 40° 62° (ENE) 16:23:45 435.215
UKube-1 24 Nov 16:09:39 16:13:57 61° 291° (WNW) 16:18:13 .
AO-7 24 Nov 16:11:43 16:19:51 58° 256° (WSW) 16:28:05 .
ITAMSAT 1 24 Nov 16:12:32 16:17:45 68° 256° (WSW) 16:23:00 435.822/435.867
NO-84 24 Nov 16:23:44 16:27:19 42° 148° (SSE) 16:31:09 435.350 FM
50 SAT 24 Nov 16:26:06 16:28:18 17° 299° (WNW) 16:30:30 437.505
HO-68 24 Nov 16:31:05 16:35:27 18° 35° (NE) 16:39:50 435.675
CUTE-I 24 Nov 16:32:43 16:35:59 17° 47° (NE) 16:39:15 437.470
XW-2C 24 Nov 16:37:30 16:37:59 10° 52° (NE) 16:38:29 145.795 - 145.815
O/OREOS (USA 219) 24 Nov 16:38:59 16:42:18 19° 325° (NW) 16:45:36 437.305
VELOX 1 24 Nov 16:39:22 16:40:26 11° 313° (NW) 16:41:28 145.980
MOZHAYETS 4 24 Nov 16:39:39 16:44:13 65° 102° (ESE) 16:48:47
LilacSat-2 24 Nov 16:42:47 16:44:21 12° 54° (NE) 16:45:54 437.200
XW-2F 24 Nov 16:44:12 16:45:17 11° 53° (NE) 16:46:22 145.980 - 146.000
BEESAT 24 Nov 16:48:25 16:53:08 58° 102° (ESE) 16:57:49 436.000
ITUPSAT 1 24 Nov 17:00:33 17:05:20 71° 104° (ESE) 17:10:05 437.325
CUBESAT XI-V 24 Nov 17:00:38 17:04:50 31° 94° (E) 17:09:01 437.345
DOVE 4 24 Nov 17:02:32 17:07:42 72° 71° (ENE) 17:13:01 437.250
KAITUO 1B 24 Nov 17:04:54 17:06:48 14° 56° (NE) 17:08:43 145.475/437.950
DX 1 24 Nov 17:12:15 17:14:53 16° 308° (NW) 17:17:30 434.975-435.025
XW-2D 24 Nov 17:27:32 17:30:44 27° 64° (ENE) 17:33:58 145.860 - 145.880
NUDT-PHONESAT 24 Nov 17:41:45 17:44:50 26° 64° (ENE) 17:47:57 437.300
XW-2B 24 Nov 17:42:12 17:45:39 35° 67° (ENE) 17:49:07 145.730 - 145.750
UKube-1 24 Nov 17:47:27 17:49:08 12° 311° (NW) 17:50:50 .
CUBEBUG 2 24 Nov 17:55:39 17:57:56 14° 53° (NE) 18:00:10 437.445
ITAMSAT 1 24 Nov 17:55:55 17:58:13 13° 277° (W) 18:00:31 435.822/435.867
CUTE 1.7 + AOD 2 24 Nov 17:57:18 18:00:17 19° 58° (ENE) 18:03:18 437.475
NO-84 24 Nov 18:00:35 18:04:31 86° 352° (N) 18:08:42 435.350 FM
RS-15 24 Nov 18:02:55 18:12:17 27° 101° (E) 18:21:32 29.354- 29.394
YUBILEINY 24 Nov 18:04:14 18:12:59 67° 266° (W) 18:21:41 435.215
KKS-1 24 Nov 18:05:54 18:09:53 31° 95° (E) 18:13:50 437.445
XW-2C 24 Nov 18:07:43 18:11:26 65° 72° (ENE) 18:15:10 145.795 - 145.815
CUTE-I 24 Nov 18:09:48 18:15:08 66° 68° (ENE) 18:20:29 437.470
AO-7 24 Nov 18:10:14 18:14:36 15° 280° (W) 18:19:00 .
LilacSat-2 24 Nov 18:14:13 18:17:59 81° 74° (ENE) 18:21:48 437.200
HO-68 24 Nov 18:14:49 18:21:39 49° 59° (ENE) 18:28:31 435.675
XW-2F 24 Nov 18:14:59 18:18:41 72° 73° (ENE) 18:22:27 145.980 - 146.000
MOZHAYETS 4 24 Nov 18:17:27 18:21:01 23° 302° (WNW) 18:24:33
AAUSAT CUBESAT 2 24 Nov 18:18:35 18:19:40 11° 50° (NE) 18:20:45 437.432
STARS 24 Nov 18:20:15 18:23:29 20° 90° (E) 18:26:40 437.465
SEEDS 24 Nov 18:20:32 18:23:37 20° 58° (ENE) 18:26:43 437.485
BEESAT 24 Nov 18:26:41 18:30:38 26° 302° (WNW) 18:34:34 436.000
KAITUO 1B 24 Nov 18:36:33 18:40:14 85° 257° (WSW) 18:43:59 145.475/437.950
CUBESAT XI-V 24 Nov 18:37:53 18:42:20 44° 294° (WNW) 18:46:48 437.345
ITUPSAT 1 24 Nov 18:39:03 18:42:44 23° 304° (NW) 18:46:23 437.325
DOVE 4 24 Nov 18:41:48 18:45:53 23° 272° (W) 18:50:05 437.250
UWE-3 24 Nov 18:43:41 18:46:52 20° 59° (ENE) 18:50:00 435.000/436.395/437.385
XW-2D 24 Nov 19:01:23 19:04:49 35° 263° (W) 19:08:19 145.860 - 145.880
AO-73 24 Nov 19:14:35 19:17:38 20° 58° (ENE) 19:20:40 145.935
NUDT-PHONESAT 24 Nov 19:15:13 19:18:35 35° 263° (W) 19:22:00 437.300
XW-2B 24 Nov 19:16:42 19:19:54 26° 266° (W) 19:23:08 145.730 - 145.750
STRAND 1 24 Nov 19:23:41 19:26:02 13° 83° (E) 19:28:22 437.568
Oscar 11 24 Nov 19:26:50 19:29:54 19° 57° (ENE) 19:32:59 .
CUBEBUG 2 24 Nov 19:29:23 19:33:52 74° 73° (ENE) 19:38:14 437.445
CUTE 1.7 + AOD 2 24 Nov 19:31:29 19:35:41 70° 258° (WSW) 19:39:56 437.475
NO-84 24 Nov 19:37:55 19:42:00 86° 10° (N) 19:46:16 435.350 FM
XW-2A 24 Nov 19:40:00 19:43:11 47° 71° (ENE) 19:46:26 145.665 - 145.685
KKS-1 24 Nov 19:42:20 19:46:34 42° 295° (WNW) 19:50:45 437.445
XW-2C 24 Nov 19:43:47 19:46:01 15° 271° (W) 19:48:17 145.795 - 145.815
AAUSAT CUBESAT 2 24 Nov 19:50:12 19:54:16 58° 70° (ENE) 19:58:23 437.432
LilacSat-2 24 Nov 19:51:08 19:52:48 12° 273° (W) 19:54:29 437.200
CUTE-I 24 Nov 19:51:14 19:55:38 25° 269° (W) 20:00:05 437.470
XW-2F 24 Nov 19:51:20 19:53:17 14° 272° (W) 19:55:14 145.980 - 146.000
SEEDS 24 Nov 19:54:46 19:58:55 65° 258° (WSW) 20:03:07 437.485
STARS 24 Nov 19:55:51 20:00:14 64° 290° (WNW) 20:04:34 437.465
ZACube-1 24 Nov 20:00:40 20:04:47 51° 69° (ENE) 20:08:51 437.345
HO-68 24 Nov 20:02:31 20:09:27 49° 261° (W) 20:16:27 435.675
YUBILEINY 24 Nov 20:02:34 20:08:05 19° 290° (WNW) 20:13:34 435.215
O/OREOS (USA 219) 24 Nov 20:04:50 20:05:23 10° 17° (NNE) 20:05:56 437.305
FO-29 24 Nov 20:05:12 20:09:53 17° 77° (ENE) 20:14:26 435.910
RS-15 24 Nov 20:10:32 20:22:48 74° 126° (SE) 20:34:51 29.354- 29.394
KAITUO 1B 24 Nov 20:14:24 20:14:52 10° 275° (W) 20:15:19 145.475/437.950
UWE-3 24 Nov 20:18:37 20:22:57 66° 257° (WSW) 20:27:14 435.000/436.395/437.385
nSIGHT-1 24 Nov 20:48:27 20:49:39 12° 142° (SE) 20:50:50 .
AO-73 24 Nov 20:49:18 20:53:30 65° 257° (WSW) 20:57:40 145.935
STRAND 1 24 Nov 21:01:02 21:06:11 71° 104° (ESE) 21:11:16 437.568
Oscar 11 24 Nov 21:01:19 21:05:36 71° 258° (WSW) 21:09:55 .
CUBEBUG 2 24 Nov 21:08:00 21:10:58 17° 272° (W) 21:13:54 437.445
CUTE 1.7 + AOD 2 24 Nov 21:11:59 21:12:21 10° 277° (W) 21:12:43 437.475
XW-2A 24 Nov 21:14:01 21:16:10 16° 269° (W) 21:18:20 145.665 - 145.685
NO-84 24 Nov 21:15:16 21:19:14 44° 211° (SSW) 21:23:18 435.350 FM
DELFI C3 24 Nov 21:21:01 21:24:51 47° 69° (ENE) 21:28:43 145.870
AAUSAT CUBESAT 2 24 Nov 21:27:03 21:30:05 20° 270° (W) 21:33:09 437.432
EO-88 24 Nov 21:29:41 21:32:52 30° 65° (ENE) 21:36:05 145.990 - 145.960
STARS 24 Nov 21:33:49 21:35:46 13° 311° (NW) 21:37:43 437.465
ZACube-1 24 Nov 21:37:58 21:41:20 23° 268° (W) 21:44:41 437.345
Max Valier Satellite 24 Nov 21:39:49 21:43:21 50° 70° (ENE) 21:46:54 145.860
SO-50 24 Nov 21:41:09 21:44:16 19° 115° (ESE) 21:47:25 436.795
O/OREOS (USA 219) 24 Nov 21:42:38 21:46:28 25° 41° (NE) 21:50:16 437.305
ISS 24 Nov 21:42:59 21:45:33 21° 151° (SSE) 21:48:07 437.550
FO-29 24 Nov 21:48:45 21:56:35 61° 100° (E) 22:03:58 435.910
HO-68 24 Nov 21:57:07 21:59:04 11° 283° (WNW) 22:01:02 435.675
UNISAT 6 24 Nov 21:59:56 22:02:17 14° 87° (E) 22:04:38 437.425
TIGRISAT 24 Nov 22:03:15 22:05:33 14° 86° (E) 22:07:51 435.000
nSIGHT-1 24 Nov 22:22:14 22:25:12 35° 161° (SSE) 22:28:10 .
RS-15 24 Nov 22:23:46 22:36:01 61° 335° (NNW) 22:47:55 29.354- 29.394
STRAND 1 24 Nov 22:40:51 22:44:57 25° 304° (NW) 22:49:02 437.568
Oscar 11 24 Nov 22:41:41 22:42:34 11° 277° (W) 22:43:28 .
ESTCUBE 1 24 Nov 22:48:20 22:52:19 32° 63° (ENE) 22:56:20 437.505/2401.250
NO-84 24 Nov 22:53:54 22:55:50 13° 230° (SW) 22:57:46 435.350 FM
VELOX 1 24 Nov 22:55:29 22:56:27 11° 47° (NE) 22:57:25 145.980
DELFI C3 24 Nov 22:56:39 22:59:49 22° 268° (W) 23:03:02 145.870
EO-88 24 Nov 23:03:17 23:06:30 29° 264° (W) 23:09:45 145.990 - 145.960
LO-87 24 Nov 23:14:39 23:18:12 61° 72° (ENE) 23:21:46 145.935 - 145.965
Max Valier Satellite 24 Nov 23:14:52 23:17:26 18° 269° (W) 23:20:02 145.860
ISS 24 Nov 23:18:24 23:21:36 49° 170° (S) 23:24:46 437.550
SO-50 24 Nov 23:19:40 23:24:10 89° 317° (NW) 23:28:44 436.795
SPROUT 24 Nov 23:20:28 23:23:35 20° 58° (ENE) 23:26:42 437.525
O/OREOS (USA 219) 24 Nov 23:21:47 23:26:21 70° 243° (WSW) 23:30:51 437.305
PRISM 24 Nov 23:23:41 23:27:24 30° 95° (E) 23:31:06 437.425
AIST 2D 24 Nov 23:28:26 23:29:56 12° 87° (E) 23:31:26 435.315
FO-29 24 Nov 23:34:01 23:41:21 44° 302° (WNW) 23:48:24 435.910
UNISAT 6 24 Nov 23:35:19 23:39:38 84° 287° (WNW) 23:43:53 437.425
TIGRISAT 24 Nov 23:38:35 23:42:53 84° 286° (WNW) 23:47:08 435.000
nSIGHT-1 24 Nov 23:58:00 00:01:10 54° 180° (S) 00:04:18 .
EO-79 25 Nov 00:11:57 00:14:19 15° 87° (E) 00:16:41 145.935-145.965
NANOSAT C BR1 25 Nov 00:12:45 00:14:49 13° 86° (E) 00:16:53 145.865
ESTCUBE 1 25 Nov 00:24:49 00:29:03 41° 262° (W) 00:33:20 437.505/2401.250
VELOX 1 25 Nov 00:27:37 00:31:55 50° 67° (ENE) 00:36:15 145.980
POLYITAN 1 25 Nov 00:27:50 00:30:58 20° 91° (E) 00:34:04 437.675
RS-15 25 Nov 00:39:03 00:50:58 52° 7° (N) 01:02:23 29.354- 29.394
LO-87 25 Nov 00:49:50 00:51:59 15° 271° (W) 00:54:08 145.935 - 145.965
QB50P2 25 Nov 00:51:02 00:54:55 34° 97° (E) 00:58:45 145.880/145.840
PCSat 25 Nov 00:54:22 00:59:30 46° 120° (ESE) 01:04:41 145.827
ISS 25 Nov 00:54:40 00:57:51 48° 190° (S) 01:01:01 437.550
SPROUT 25 Nov 00:54:48 00:59:04 69° 257° (WSW) 01:03:21 437.525
PRISM 25 Nov 00:58:52 01:02:45 37° 295° (WNW) 01:06:36 437.425
AIST 2D 25 Nov 01:00:02 01:03:34 74° 286° (WNW) 01:07:06 435.315
DX 1 25 Nov 01:01:07 01:04:58 31° 62° (ENE) 01:08:52 434.975-435.025
SO-50 25 Nov 01:01:09 01:05:09 30° 338° (NNW) 01:09:14 436.795
O/OREOS (USA 219) 25 Nov 01:03:24 01:04:53 11° 263° (W) 01:06:21 437.305
UNISAT 6 25 Nov 01:13:18 01:15:43 15° 307° (NW) 01:18:06 437.425
TIGRISAT 25 Nov 01:16:31 01:18:57 15° 307° (NW) 01:21:21 435.000
FO-29 25 Nov 01:20:00 01:24:32 17° 325° (NW) 01:29:01 435.910
50 SAT 25 Nov 01:26:06 01:29:13 44° 69° (ENE) 01:32:20 437.505
DUCHIFAT 1 25 Nov 01:34:03 01:38:13 63° 103° (ESE) 01:42:20 145.980
nSIGHT-1 25 Nov 01:34:10 01:37:06 33° 200° (SSW) 01:40:01 .
UKube-1 25 Nov 01:34:31 01:38:34 40° 65° (ENE) 01:42:38 .
Gurwin Techsat 1B 25 Nov 01:36:39 01:38:37 12° 82° (E) 01:40:35 435.225
EO-79 25 Nov 01:46:26 01:50:39 81° 287° (WNW) 01:54:50 145.935-145.965
NANOSAT C BR1 25 Nov 01:46:57 01:51:10 88° 286° (WNW) 01:55:21 145.865
AO-91 25 Nov 01:58:10 02:01:31 20° 87° (E) 02:04:37 145.960
POLYITAN 1 25 Nov 02:02:58 02:07:06 58° 290° (WNW) 02:11:13 437.675
VELOX 1 25 Nov 02:04:54 02:08:36 26° 267° (W) 02:12:22 145.980
BUGSAT 1 25 Nov 02:10:58 02:14:48 41° 98° (E) 02:18:36 437.445
MOZHAYETS 4 25 Nov 02:12:01 02:15:37 23° 58° (ENE) 02:19:13
Oscar 19 25 Nov 02:17:25 02:22:00 31° 94° (E) 02:26:35 437.125/150
BEESAT 25 Nov 02:24:38 02:28:34 26° 58° (ENE) 02:32:30 436.000
QB50P2 25 Nov 02:26:53 02:30:41 33° 296° (WNW) 02:34:28 145.880/145.840
ISS 25 Nov 02:31:20 02:33:53 21° 209° (SSW) 02:36:26 437.550
SPROUT 25 Nov 02:35:23 02:35:47 10° 277° (W) 02:36:11 437.525
AIST 2D 25 Nov 02:35:30 02:36:06 10° 305° (NW) 02:36:41 435.315
CUBESAT XI-V 25 Nov 02:35:56 02:38:07 13° 50° (NE) 02:40:17 437.345
ITUPSAT 1 25 Nov 02:36:45 02:40:56 31° 60° (ENE) 02:45:08 437.325
DX 1 25 Nov 02:36:54 02:41:04 41° 261° (W) 02:45:15 434.975-435.025
PCSat 25 Nov 02:37:41 02:42:58 49° 322° (NW) 02:48:15 145.827
SO-50 25 Nov 02:43:14 02:46:51 22° 3° (N) 02:50:30 436.795
RS-15 25 Nov 02:53:06 03:05:18 78° 39° (NE) 03:16:48 29.354- 29.394
50 SAT 25 Nov 02:59:22 03:01:30 16° 268° (W) 03:03:39 437.505
BEESAT 2 25 Nov 03:03:40 03:05:01 11° 111° (ESE) 03:06:22 435.950
DUCHIFAT 1 25 Nov 03:10:25 03:13:31 20° 302° (WNW) 03:16:36 145.980
UKube-1 25 Nov 03:10:50 03:14:41 31° 264° (W) 03:18:33 .
nSIGHT-1 25 Nov 03:11:50 03:12:37 11° 219° (SW) 03:13:24 .
Gurwin Techsat 1B 25 Nov 03:14:21 03:19:40 63° 102° (ESE) 03:24:57 435.225
BEESAT 3 25 Nov 03:16:58 03:20:42 38° 125° (SE) 03:24:26 437.485
EO-79 25 Nov 03:23:30 03:25:46 14° 307° (NW) 03:28:01 145.935-145.965
NANOSAT C BR1 25 Nov 03:23:50 03:26:17 15° 306° (NW) 03:28:43 145.865
AO-91 25 Nov 03:33:53 03:38:32 64° 290° (WNW) 03:42:40 145.960
KKS-1 25 Nov 03:36:29 03:38:35 13° 50° (NE) 03:40:41 437.445
POLYITAN 1 25 Nov 03:40:54 03:42:02 11° 310° (NW) 03:43:10 437.675
BUGSAT 1 25 Nov 03:46:37 03:50:02 27° 298° (WNW) 03:53:26 437.445
MOZHAYETS 4 25 Nov 03:47:55 03:52:26 62° 258° (WSW) 03:56:59
Oscar 19 25 Nov 03:56:34 04:01:34 51° 294° (WNW) 04:06:33 437.125/150
BEESAT 25 Nov 04:01:20 04:06:02 59° 258° (WSW) 04:10:47 436.000
AO-7 25 Nov 04:05:24 04:12:52 34° 94° (E) 04:20:18 .
CUBESAT XI-V 25 Nov 04:10:04 04:14:37 63° 70° (ENE) 04:19:14 437.345
ITUPSAT 1 25 Nov 04:14:00 04:18:37 48° 260° (W) 04:23:16 437.325
ITAMSAT 1 25 Nov 04:18:48 04:23:10 26° 92° (E) 04:27:30 435.822/435.867
PCSat 25 Nov 04:23:15 04:27:35 23° 346° (NNW) 04:31:56 145.827
SO-50 25 Nov 04:24:13 04:28:28 35° 27° (NNE) 04:32:46 436.795
M-CUBED/EXP-1 PRIME 25 Nov 04:28:19 04:32:49 58° 108° (ESE) 04:37:24 437.505
AO-85 25 Nov 04:36:39 04:40:04 29° 121° (ESE) 04:43:41 145.980
BEESAT 2 25 Nov 04:37:58 04:41:58 66° 131° (SE) 04:46:01 435.950
BEESAT 3 25 Nov 04:54:22 04:58:13 44° 325° (NW) 05:02:05 437.485
Gurwin Techsat 1B 25 Nov 04:54:47 04:59:18 29° 303° (WNW) 05:03:48 435.225
DOVE 4 25 Nov 04:56:12 04:58:55 14° 82° (E) 05:01:35 437.250
RS-15 25 Nov 05:06:05 05:17:06 47° 247° (WSW) 05:27:35 29.354- 29.394
KKS-1 25 Nov 05:09:53 05:14:19 64° 70° (ENE) 05:18:48 437.445
AO-91 25 Nov 05:11:50 05:14:00 13° 312° (NW) 05:16:04 145.960
YUBILEINY 25 Nov 05:17:54 05:25:25 34° 81° (E) 05:33:00 435.215
STARS 25 Nov 05:22:35 05:26:43 40° 65° (ENE) 05:30:53 437.465
Oscar 19 25 Nov 05:37:37 05:39:50 13° 315° (NW) 05:42:02 437.125/150
CUBESAT XI-V 25 Nov 05:48:54 05:52:26 21° 270° (W) 05:55:59 437.345
ITAMSAT 1 25 Nov 05:57:53 06:03:03 61° 292° (WNW) 06:08:09 435.822/435.867
AO-7 25 Nov 05:58:02 06:06:23 76° 297° (WNW) 06:14:43 .
M-CUBED/EXP-1 PRIME 25 Nov 06:03:06 06:06:56 28° 306° (NW) 06:10:51 437.505
SO-50 25 Nov 06:04:40 06:09:17 71° 228° (SW) 06:13:56 436.795
PCSat 25 Nov 06:08:29 06:12:46 23° 12° (NNE) 06:17:02 145.827
AO-85 25 Nov 06:16:20 06:20:15 54° 323° (NW) 06:24:28 145.980
BEESAT 2 25 Nov 06:16:20 06:20:00 32° 332° (NNW) 06:23:41 435.950
CUTE-I 25 Nov 06:21:04 06:24:16 16° 85° (E) 06:27:27 437.470
FO-29 25 Nov 06:25:12 06:30:16 20° 40° (NE) 06:35:32 435.910
XW-2D 25 Nov 06:27:23 06:29:51 16° 89° (E) 06:32:19 145.860 - 145.880
DOVE 4 25 Nov 06:32:18 06:37:33 76° 103° (ESE) 06:42:30 437.250
BEESAT 3 25 Nov 06:33:39 06:36:39 20° 348° (NNW) 06:39:38 437.485
NUDT-PHONESAT 25 Nov 06:39:02 06:41:10 15° 88° (E) 06:43:19 437.300
XW-2B 25 Nov 06:42:00 06:45:00 21° 92° (E) 06:47:58 145.730 - 145.750
STRAND 1 25 Nov 06:45:05 06:49:48 37° 62° (ENE) 06:54:31 437.568
KKS-1 25 Nov 06:47:58 06:51:18 20° 269° (W) 06:54:40 437.445
STARS 25 Nov 06:59:10 07:03:09 32° 264° (W) 07:07:08 437.465
XW-2C 25 Nov 07:07:30 07:11:05 37° 97° (E) 07:14:40 145.795 - 145.815
CUTE 1.7 + AOD 2 25 Nov 07:10:39 07:12:57 14° 86° (E) 07:15:14 437.475
YUBILEINY 25 Nov 07:12:46 07:21:33 75° 284° (WNW) 07:30:27 435.215
XW-2F 25 Nov 07:14:10 07:17:48 41° 98° (E) 07:21:25 145.980 - 146.000
LilacSat-2 25 Nov 07:14:45 07:18:30 47° 99° (E) 07:22:14 437.200
RS-15 25 Nov 07:22:40 07:25:57 12° 273° (W) 07:29:14 29.354- 29.394
HO-68 25 Nov 07:22:41 07:28:34 26° 89° (E) 07:34:23 435.675
SEEDS 25 Nov 07:32:41 07:35:07 15° 87° (E) 07:37:31 437.485
KAITUO 1B 25 Nov 07:34:35 07:38:18 53° 101° (E) 07:42:00 145.475/437.950
ITAMSAT 1 25 Nov 07:38:41 07:41:35 15° 313° (NW) 07:44:28 435.822/435.867
SO-50 25 Nov 07:46:30 07:49:00 14° 248° (WSW) 07:51:31 436.795
AO-7 25 Nov 07:51:20 07:58:04 29° 320° (NW) 08:04:48 .
PCSat 25 Nov 07:52:13 07:57:28 45° 37° (NE) 08:02:40 145.827
BEESAT 2 25 Nov 07:55:54 07:58:48 18° 355° (N) 08:01:43 435.950
AO-85 25 Nov 07:58:11 08:01:32 23° 347° (NNW) 08:05:04 145.980
CUTE-I 25 Nov 07:59:47 08:05:12 80° 106° (ESE) 08:10:34 437.470
XW-2D 25 Nov 08:00:38 08:04:24 62° 289° (WNW) 08:08:11 145.860 - 145.880
UWE-3 25 Nov 08:02:13 08:04:43 15° 87° (E) 08:07:13 435.000/436.395/437.385
FO-29 25 Nov 08:06:49 08:13:46 57° 63° (ENE) 08:21:20 435.910
DOVE 4 25 Nov 08:10:38 08:14:41 23° 304° (NW) 08:18:37 437.250
NUDT-PHONESAT 25 Nov 08:11:45 08:15:27 66° 287° (WNW) 08:19:08 437.300
BEESAT 3 25 Nov 08:12:27 08:15:27 20° 12° (NNE) 08:18:24 437.485
XW-2B 25 Nov 08:15:43 08:19:23 45° 291° (WNW) 08:23:03 145.730 - 145.750
STRAND 1 25 Nov 08:24:02 08:28:57 44° 262° (W) 08:33:52 437.568
XW-2A 25 Nov 08:27:42 08:30:16 20° 93° (E) 08:32:50 145.665 - 145.685
AO-73 25 Nov 08:31:12 08:33:37 15° 87° (E) 08:36:03 145.935
XW-2C 25 Nov 08:41:55 08:45:10 26° 296° (WNW) 08:48:23 145.795 - 145.815
Oscar 11 25 Nov 08:42:48 08:45:13 14° 86° (E) 08:47:37 .
CUTE 1.7 + AOD 2 25 Nov 08:45:05 08:49:24 87° 281° (WNW) 08:53:42 437.475
PRISM 25 Nov 08:47:49 08:48:22 10° 48° (NE) 08:48:57 437.425
XW-2F 25 Nov 08:48:37 08:51:44 25° 297° (WNW) 08:54:52 145.980 - 146.000
LilacSat-2 25 Nov 08:49:31 08:52:32 22° 299° (WNW) 08:55:33 437.200
CUBEBUG 2 25 Nov 08:49:48 08:54:00 66° 102° (ESE) 08:58:06 437.445
AAUSAT CUBESAT 2 25 Nov 09:00:40 09:04:42 43° 98° (E) 09:08:42 437.432
UNISAT 6 25 Nov 09:04:19 09:08:13 30° 62° (ENE) 09:12:03 437.425
SEEDS 25 Nov 09:07:06 09:11:23 83° 285° (WNW) 09:15:38 437.485
TIGRISAT 25 Nov 09:07:29 09:11:21 29° 62° (ENE) 09:15:09 435.000
KAITUO 1B 25 Nov 09:09:11 09:11:58 20° 300° (WNW) 09:14:46 145.475/437.950
HO-68 25 Nov 09:09:55 09:17:10 85° 291° (WNW) 09:24:21 435.675
YUBILEINY 25 Nov 09:13:13 09:20:08 25° 311° (NW) 09:27:07 435.215
ZACube-1 25 Nov 09:18:00 09:21:58 42° 98° (E) 09:25:57 437.345
BEESAT 2 25 Nov 09:34:26 09:37:46 23° 19° (NNE) 09:41:05 435.950
PCSat 25 Nov 09:35:45 09:41:01 52° 239° (WSW) 09:46:15 145.827
UWE-3 25 Nov 09:37:33 09:41:43 74° 286° (WNW) 09:45:51 435.000/436.395/437.385
XW-2D 25 Nov 09:37:36 09:37:49 10° 308° (NW) 09:38:03 145.860 - 145.880
AO-85 25 Nov 09:39:47 09:43:15 22° 12° (NNE) 09:46:53 145.980
CUTE-I 25 Nov 09:40:32 09:44:44 24° 306° (NW) 09:48:54 437.470
AO-7 25 Nov 09:44:08 09:48:15 15° 347° (NNW) 09:52:21 .
NUDT-PHONESAT 25 Nov 09:48:01 09:48:34 10° 307° (NW) 09:49:08 437.300
BEESAT 3 25 Nov 09:50:02 09:53:52 43° 35° (NE) 09:57:39 437.485
FO-29 25 Nov 09:52:20 09:59:02 44° 266° (W) 10:06:22 435.910
XW-2A 25 Nov 09:59:57 10:03:07 38° 292° (WNW) 10:06:16 145.665 - 145.685
AO-73 25 Nov 10:06:15 10:10:24 77° 287° (WNW) 10:14:34 145.935
AIST 2D 25 Nov 10:08:59 10:10:49 14° 58° (ENE) 10:12:41 435.315
QB50P2 25 Nov 10:17:14 10:18:42 12° 50° (NE) 10:20:11 145.880/145.840
Oscar 11 25 Nov 10:17:36 10:21:58 86° 287° (WNW) 10:26:19 .
PRISM 25 Nov 10:18:43 10:22:45 53° 69° (ENE) 10:26:50 437.425
CUTE 1.7 + AOD 2 25 Nov 10:22:06 10:24:38 15° 305° (NW) 10:27:09 437.475
EO-88 25 Nov 10:25:19 10:27:38 16° 90° (E) 10:29:56 145.990 - 145.960
DELFI C3 25 Nov 10:25:40 10:29:15 30° 95° (E) 10:32:48 145.870
CUBEBUG 2 25 Nov 10:27:13 10:30:13 19° 302° (WNW) 10:33:11 437.445
AAUSAT CUBESAT 2 25 Nov 10:36:26 10:39:59 27° 298° (WNW) 10:43:33 437.432
Max Valier Satellite 25 Nov 10:36:40 10:39:51 27° 95° (E) 10:43:02 145.860
UNISAT 6 25 Nov 10:40:30 10:44:48 44° 261° (W) 10:49:03 437.425
TIGRISAT 25 Nov 10:43:36 10:47:55 44° 261° (W) 10:52:08 435.000
SEEDS 25 Nov 10:44:03 10:46:26 15° 306° (NW) 10:48:47 437.485
ZACube-1 25 Nov 10:54:36 10:58:08 27° 297° (WNW) 11:01:39 437.345
DUCHIFAT 1 25 Nov 10:57:56 11:00:47 18° 56° (ENE) 11:03:39 145.980
HO-68 25 Nov 10:58:17 11:04:05 27° 314° (NW) 11:09:51 435.675
EO-79 25 Nov 11:10:01 11:13:34 27° 61° (ENE) 11:17:07 145.935-145.965
NANOSAT C BR1 25 Nov 11:10:23 11:13:48 24° 60° (ENE) 11:17:13 145.865
BEESAT 2 25 Nov 11:12:04 11:16:09 68° 42° (NE) 11:20:09 435.950
UWE-3 25 Nov 11:15:35 11:17:29 13° 307° (NW) 11:19:21 435.000/436.395/437.385
AO-85 25 Nov 11:20:15 11:24:35 47° 35° (NE) 11:29:15 145.980
YUBILEINY 25 Nov 11:20:50 11:21:24 10° 343° (NNW) 11:21:59 435.215
PCSat 25 Nov 11:22:22 11:23:12 10° 259° (W) 11:24:03 145.827
POLYITAN 1 25 Nov 11:26:12 11:30:04 35° 65° (ENE) 11:33:55 437.675
BEESAT 3 25 Nov 11:27:42 11:31:23 37° 236° (SW) 11:35:00 437.485
AO-91 25 Nov 11:28:22 11:29:38 11° 45° (NE) 11:30:53 145.960
AO-7 25 Nov 11:33:37 11:37:48 15° 14° (NNE) 11:41:59 .
BUGSAT 1 25 Nov 11:34:04 11:35:55 13° 52° (NE) 11:37:45 437.445
AIST 2D 25 Nov 11:40:04 11:43:32 73° 257° (WSW) 11:47:02 435.315
AO-73 25 Nov 11:43:59 11:45:59 13° 307° (NW) 11:47:59 145.935
FO-29 25 Nov 11:45:26 11:46:21 10° 290° (WNW) 11:47:17 435.910
